#datetime,building,power
2021-12-31T00:00:00,mfh,21.84
2021-12-31T00:01:00,mfh,21.16
2021-12-31T00:02:00,mfh,21.06
2021-12-31T00:03:00,mfh,20.93
2021-12-31T00:04:00,mfh,21.25
2021-12-31T00:05:00,mfh,21.60
2021-12-31T00:06:00,mfh,21.59
2021-12-31T00:07:00,mfh,21.69
2021-12-31T00:08:00,mfh,21.67
2021-12-31T00:09:00,mfh,21.01
2021-12-31T00:10:00,mfh,21.00
2021-12-31T00:11:00,mfh,21.00
2021-12-31T00:12:00,mfh,21.00
2021-12-31T00:13:00,mfh,21.69
2021-12-31T00:14:00,mfh,21.64
2021-12-31T00:15:00,mfh,21.77
2021-12-31T00:16:00,mfh,22.02
2021-12-31T00:17:00,mfh,21.73
2021-12-31T00:18:00,mfh,21.08
2021-12-31T00:19:00,mfh,21.04
2021-12-31T00:20:00,mfh,21.00
2021-12-31T00:21:00,mfh,20.93
2021-12-31T00:22:00,mfh,21.55
2021-12-31T00:23:00,mfh,21.57
2021-12-31T00:24:00,mfh,24.21
2021-12-31T00:25:00,mfh,23.65
2021-12-31T00:26:00,mfh,23.64
2021-12-31T00:27:00,mfh,23.66
2021-12-31T00:28:00,mfh,23.74
2021-12-31T00:29:00,mfh,23.70
2021-12-31T00:30:00,mfh,23.48
2021-12-31T00:31:00,mfh,23.64
2021-12-31T00:32:00,mfh,23.39
2021-12-31T00:33:00,mfh,23.37
2021-12-31T00:34:00,mfh,22.63
2021-12-31T00:35:00,mfh,23.26
2021-12-31T00:36:00,mfh,22.98
2021-12-31T00:37:00,mfh,22.70
2021-12-31T00:38:00,mfh,23.33
2021-12-31T00:39:00,mfh,23.29
2021-12-31T00:40:00,mfh,23.58
2021-12-31T00:41:00,mfh,23.48
2021-12-31T00:42:00,mfh,20.96
2021-12-31T00:43:00,mfh,20.91
2021-12-31T00:44:00,mfh,20.91
2021-12-31T00:45:00,mfh,20.88
2021-12-31T00:46:00,mfh,21.52
2021-12-31T00:47:00,mfh,21.49
2021-12-31T00:48:00,mfh,21.46
2021-12-31T00:49:00,mfh,21.56
2021-12-31T00:50:00,mfh,21.71
2021-12-31T00:51:00,mfh,21.00
2021-12-31T00:52:00,mfh,21.07
2021-12-31T00:53:00,mfh,20.89
2021-12-31T00:54:00,mfh,21.48
2021-12-31T00:55:00,mfh,21.55
2021-12-31T00:56:00,mfh,21.58
2021-12-31T00:57:00,mfh,21.57
2021-12-31T00:58:00,mfh,21.61
2021-12-31T00:59:00,mfh,20.98
2021-12-31T01:00:00,mfh,20.89
2021-12-31T01:01:00,mfh,20.89
2021-12-31T01:02:00,mfh,21.53
2021-12-31T01:03:00,mfh,21.52
2021-12-31T01:04:00,mfh,21.55
2021-12-31T01:05:00,mfh,21.51
2021-12-31T01:06:00,mfh,22.00
2021-12-31T01:07:00,mfh,20.86
2021-12-31T01:08:00,mfh,20.90
2021-12-31T01:09:00,mfh,20.90
2021-12-31T01:10:00,mfh,20.98
2021-12-31T01:11:00,mfh,21.66
2021-12-31T01:12:00,mfh,21.67
2021-12-31T01:13:00,mfh,21.59
2021-12-31T01:14:00,mfh,21.70
2021-12-31T01:15:00,mfh,21.27
2021-12-31T01:16:00,mfh,21.06
2021-12-31T01:17:00,mfh,21.06
2021-12-31T01:18:00,mfh,21.13
2021-12-31T01:19:00,mfh,22.10
2021-12-31T01:20:00,mfh,21.95
2021-12-31T01:21:00,mfh,21.83
2021-12-31T01:22:00,mfh,22.23
2021-12-31T01:23:00,mfh,21.85
2021-12-31T01:24:00,mfh,21.06
2021-12-31T01:25:00,mfh,21.21
2021-12-31T01:26:00,mfh,21.21
2021-12-31T01:27:00,mfh,21.89
2021-12-31T01:28:00,mfh,21.90
2021-12-31T01:29:00,mfh,21.93
2021-12-31T01:30:00,mfh,21.91
2021-12-31T01:31:00,mfh,22.24
2021-12-31T01:32:00,mfh,21.31
2021-12-31T01:33:00,mfh,21.31
2021-12-31T01:34:00,mfh,21.09
2021-12-31T01:35:00,mfh,21.17
2021-12-31T01:36:00,mfh,21.79
2021-12-31T01:37:00,mfh,21.72
2021-12-31T01:38:00,mfh,21.82
2021-12-31T01:39:00,mfh,22.12
2021-12-31T01:40:00,mfh,21.10
2021-12-31T01:41:00,mfh,21.10
2021-12-31T01:42:00,mfh,20.98
2021-12-31T01:43:00,mfh,21.23
2021-12-31T01:44:00,mfh,21.75
2021-12-31T01:45:00,mfh,22.14
2021-12-31T01:46:00,mfh,21.73
2021-12-31T01:47:00,mfh,21.87
2021-12-31T01:48:00,mfh,21.89
2021-12-31T01:49:00,mfh,21.20
2021-12-31T01:50:00,mfh,21.14
2021-12-31T01:51:00,mfh,21.11
2021-12-31T01:52:00,mfh,22.71
2021-12-31T01:53:00,mfh,22.11
2021-12-31T01:54:00,mfh,22.91
2021-12-31T01:55:00,mfh,21.76
2021-12-31T01:56:00,mfh,21.74
2021-12-31T01:57:00,mfh,21.07
2021-12-31T01:58:00,mfh,21.01
2021-12-31T01:59:00,mfh,23.11
2021-12-31T02:00:00,mfh,23.99
2021-12-31T02:01:00,mfh,23.69
2021-12-31T02:02:00,mfh,23.73
2021-12-31T02:03:00,mfh,23.63
2021-12-31T02:04:00,mfh,24.66
2021-12-31T02:05:00,mfh,23.01
2021-12-31T02:06:00,mfh,23.02
2021-12-31T02:07:00,mfh,23.31
2021-12-31T02:08:00,mfh,23.89
2021-12-31T02:09:00,mfh,23.61
2021-12-31T02:10:00,mfh,23.60
2021-12-31T02:11:00,mfh,23.62
2021-12-31T02:12:00,mfh,23.66
2021-12-31T02:13:00,mfh,22.92
2021-12-31T02:14:00,mfh,22.89
2021-12-31T02:15:00,mfh,23.19
2021-12-31T02:16:00,mfh,22.80
2021-12-31T02:17:00,mfh,23.43
2021-12-31T02:18:00,mfh,21.69
2021-12-31T02:19:00,mfh,21.61
2021-12-31T02:20:00,mfh,21.64
2021-12-31T02:21:00,mfh,20.95
2021-12-31T02:22:00,mfh,20.90
2021-12-31T02:23:00,mfh,20.90
2021-12-31T02:24:00,mfh,20.90
2021-12-31T02:25:00,mfh,21.95
2021-12-31T02:26:00,mfh,21.40
2021-12-31T02:27:00,mfh,21.40
2021-12-31T02:28:00,mfh,21.52
2021-12-31T02:29:00,mfh,20.84
2021-12-31T02:30:00,mfh,20.84
2021-12-31T02:31:00,mfh,20.75
2021-12-31T02:32:00,mfh,21.36
2021-12-31T02:33:00,mfh,21.71
2021-12-31T02:34:00,mfh,22.00
2021-12-31T02:35:00,mfh,21.68
2021-12-31T02:36:00,mfh,21.65
2021-12-31T02:37:00,mfh,21.07
2021-12-31T02:38:00,mfh,21.00
2021-12-31T02:39:00,mfh,20.96
2021-12-31T02:40:00,mfh,21.07
2021-12-31T02:41:00,mfh,21.53
2021-12-31T02:42:00,mfh,21.71
2021-12-31T02:43:00,mfh,21.72
2021-12-31T02:44:00,mfh,21.82
2021-12-31T02:45:00,mfh,21.71
2021-12-31T02:46:00,mfh,21.04
2021-12-31T02:47:00,mfh,21.05
2021-12-31T02:48:00,mfh,20.95
2021-12-31T02:49:00,mfh,20.89
2021-12-31T02:50:00,mfh,21.49
2021-12-31T02:51:00,mfh,21.54
2021-12-31T02:52:00,mfh,21.53
2021-12-31T02:53:00,mfh,21.81
2021-12-31T02:54:00,mfh,21.80
2021-12-31T02:55:00,mfh,21.78
2021-12-31T02:56:00,mfh,21.74
2021-12-31T02:57:00,mfh,21.65
2021-12-31T02:58:00,mfh,21.48
2021-12-31T02:59:00,mfh,21.71
2021-12-31T03:00:00,mfh,21.75
2021-12-31T03:01:00,mfh,21.67
2021-12-31T03:02:00,mfh,21.71
2021-12-31T03:03:00,mfh,20.99
2021-12-31T03:04:00,mfh,21.19
2021-12-31T03:05:00,mfh,21.32
2021-12-31T03:06:00,mfh,21.22
2021-12-31T03:07:00,mfh,22.02
2021-12-31T03:08:00,mfh,21.90
2021-12-31T03:09:00,mfh,22.83
2021-12-31T03:10:00,mfh,21.99
2021-12-31T03:11:00,mfh,21.30
2021-12-31T03:12:00,mfh,21.48
2021-12-31T03:13:00,mfh,21.43
2021-12-31T03:14:00,mfh,22.27
2021-12-31T03:15:00,mfh,22.02
2021-12-31T03:16:00,mfh,21.98
2021-12-31T03:17:00,mfh,21.95
2021-12-31T03:18:00,mfh,22.05
2021-12-31T03:19:00,mfh,21.97
2021-12-31T03:20:00,mfh,21.30
2021-12-31T03:21:00,mfh,21.31
2021-12-31T03:22:00,mfh,21.30
2021-12-31T03:23:00,mfh,21.39
2021-12-31T03:24:00,mfh,21.96
2021-12-31T03:25:00,mfh,21.99
2021-12-31T03:26:00,mfh,21.99
2021-12-31T03:27:00,mfh,22.68
2021-12-31T03:28:00,mfh,21.33
2021-12-31T03:29:00,mfh,21.34
2021-12-31T03:30:00,mfh,21.29
2021-12-31T03:31:00,mfh,23.45
2021-12-31T03:32:00,mfh,23.90
2021-12-31T03:33:00,mfh,23.74
2021-12-31T03:34:00,mfh,23.76
2021-12-31T03:35:00,mfh,23.80
2021-12-31T03:36:00,mfh,23.20
2021-12-31T03:37:00,mfh,23.08
2021-12-31T03:38:00,mfh,23.07
2021-12-31T03:39:00,mfh,23.05
2021-12-31T03:40:00,mfh,24.20
2021-12-31T03:41:00,mfh,23.79
2021-12-31T03:42:00,mfh,23.83
2021-12-31T03:43:00,mfh,24.12
2021-12-31T03:44:00,mfh,24.21
2021-12-31T03:45:00,mfh,23.01
2021-12-31T03:46:00,mfh,23.59
2021-12-31T03:47:00,mfh,23.49
2021-12-31T03:48:00,mfh,23.71
2021-12-31T03:49:00,mfh,23.71
2021-12-31T03:50:00,mfh,21.74
2021-12-31T03:51:00,mfh,21.85
2021-12-31T03:52:00,mfh,21.87
2021-12-31T03:53:00,mfh,21.22
2021-12-31T03:54:00,mfh,21.36
2021-12-31T03:55:00,mfh,21.57
2021-12-31T03:56:00,mfh,21.69
2021-12-31T03:57:00,mfh,22.29
2021-12-31T03:58:00,mfh,22.39
2021-12-31T03:59:00,mfh,22.17
2021-12-31T04:00:00,mfh,22.14
2021-12-31T04:01:00,mfh,21.48
2021-12-31T04:02:00,mfh,21.30
2021-12-31T04:03:00,mfh,21.83
2021-12-31T04:04:00,mfh,21.18
2021-12-31T04:05:00,mfh,21.74
2021-12-31T04:06:00,mfh,22.55
2021-12-31T04:07:00,mfh,21.95
2021-12-31T04:08:00,mfh,22.22
2021-12-31T04:09:00,mfh,21.88
2021-12-31T04:10:00,mfh,21.25
2021-12-31T04:11:00,mfh,21.23
2021-12-31T04:12:00,mfh,21.21
2021-12-31T04:13:00,mfh,22.31
2021-12-31T04:14:00,mfh,22.02
2021-12-31T04:15:00,mfh,22.16
2021-12-31T04:16:00,mfh,23.03
2021-12-31T04:17:00,mfh,22.12
2021-12-31T04:18:00,mfh,21.40
2021-12-31T04:19:00,mfh,21.34
2021-12-31T04:20:00,mfh,21.19
2021-12-31T04:21:00,mfh,22.09
2021-12-31T04:22:00,mfh,22.41
2021-12-31T04:23:00,mfh,22.00
2021-12-31T04:24:00,mfh,21.81
2021-12-31T04:25:00,mfh,22.12
2021-12-31T04:26:00,mfh,21.42
2021-12-31T04:27:00,mfh,21.42
2021-12-31T04:28:00,mfh,21.37
2021-12-31T04:29:00,mfh,21.36
2021-12-31T04:30:00,mfh,21.96
2021-12-31T04:31:00,mfh,22.73
2021-12-31T04:32:00,mfh,21.84
2021-12-31T04:33:00,mfh,21.87
2021-12-31T04:34:00,mfh,21.47
2021-12-31T04:35:00,mfh,21.21
2021-12-31T04:36:00,mfh,21.17
2021-12-31T04:37:00,mfh,21.15
2021-12-31T04:38:00,mfh,21.74
2021-12-31T04:39:00,mfh,21.72
2021-12-31T04:40:00,mfh,21.67
2021-12-31T04:41:00,mfh,21.69
2021-12-31T04:42:00,mfh,21.66
2021-12-31T04:43:00,mfh,21.03
2021-12-31T04:44:00,mfh,21.18
2021-12-31T04:45:00,mfh,21.13
2021-12-31T04:46:00,mfh,21.17
2021-12-31T04:47:00,mfh,21.78
2021-12-31T04:48:00,mfh,21.83
2021-12-31T04:49:00,mfh,21.87
2021-12-31T04:50:00,mfh,21.86
2021-12-31T04:51:00,mfh,21.11
2021-12-31T04:52:00,mfh,21.08
2021-12-31T04:53:00,mfh,21.71
2021-12-31T04:54:00,mfh,21.09
2021-12-31T04:55:00,mfh,21.32
2021-12-31T04:56:00,mfh,22.11
2021-12-31T04:57:00,mfh,22.07
2021-12-31T04:58:00,mfh,22.07
2021-12-31T04:59:00,mfh,22.04
2021-12-31T05:00:00,mfh,21.43
2021-12-31T05:01:00,mfh,38.05
2021-12-31T05:02:00,mfh,40.62
2021-12-31T05:03:00,mfh,43.99
2021-12-31T05:04:00,mfh,43.25
2021-12-31T05:05:00,mfh,43.37
2021-12-31T05:06:00,mfh,43.42
2021-12-31T05:07:00,mfh,43.07
2021-12-31T05:08:00,mfh,41.76
2021-12-31T05:09:00,mfh,41.43
2021-12-31T05:10:00,mfh,41.33
2021-12-31T05:11:00,mfh,41.17
2021-12-31T05:12:00,mfh,42.32
2021-12-31T05:13:00,mfh,43.25
2021-12-31T05:14:00,mfh,42.53
2021-12-31T05:15:00,mfh,42.62
2021-12-31T05:16:00,mfh,41.90
2021-12-31T05:17:00,mfh,42.07
2021-12-31T05:18:00,mfh,42.08
2021-12-31T05:19:00,mfh,41.97
2021-12-31T05:20:00,mfh,42.76
2021-12-31T05:21:00,mfh,41.61
2021-12-31T05:22:00,mfh,41.64
2021-12-31T05:23:00,mfh,42.14
2021-12-31T05:24:00,mfh,41.29
2021-12-31T05:25:00,mfh,40.21
2021-12-31T05:26:00,mfh,40.11
2021-12-31T05:27:00,mfh,40.46
2021-12-31T05:28:00,mfh,40.95
2021-12-31T05:29:00,mfh,40.88
2021-12-31T05:30:00,mfh,40.82
2021-12-31T05:31:00,mfh,40.85
2021-12-31T05:32:00,mfh,40.80
2021-12-31T05:33:00,mfh,40.35
2021-12-31T05:34:00,mfh,40.24
2021-12-31T05:35:00,mfh,40.27
2021-12-31T05:36:00,mfh,39.95
2021-12-31T05:37:00,mfh,40.68
2021-12-31T05:38:00,mfh,40.65
2021-12-31T05:39:00,mfh,40.70
2021-12-31T05:40:00,mfh,40.66
2021-12-31T05:41:00,mfh,39.96
2021-12-31T05:42:00,mfh,40.00
2021-12-31T05:43:00,mfh,40.43
2021-12-31T05:44:00,mfh,39.89
2021-12-31T05:45:00,mfh,41.40
2021-12-31T05:46:00,mfh,40.88
2021-12-31T05:47:00,mfh,40.94
2021-12-31T05:48:00,mfh,40.86
2021-12-31T05:49:00,mfh,40.16
2021-12-31T05:50:00,mfh,40.26
2021-12-31T05:51:00,mfh,41.11
2021-12-31T05:52:00,mfh,40.44
2021-12-31T05:53:00,mfh,41.85
2021-12-31T05:54:00,mfh,41.07
2021-12-31T05:55:00,mfh,41.17
2021-12-31T05:56:00,mfh,41.08
2021-12-31T05:57:00,mfh,40.51
2021-12-31T05:58:00,mfh,40.52
2021-12-31T05:59:00,mfh,40.72
2021-12-31T06:00:00,mfh,40.69
2021-12-31T06:01:00,mfh,41.00
2021-12-31T06:02:00,mfh,41.05
2021-12-31T06:03:00,mfh,40.81
2021-12-31T06:04:00,mfh,40.93
2021-12-31T06:05:00,mfh,41.19
2021-12-31T06:06:00,mfh,40.47
2021-12-31T06:07:00,mfh,40.42
2021-12-31T06:08:00,mfh,40.51
2021-12-31T06:09:00,mfh,40.55
2021-12-31T06:10:00,mfh,41.35
2021-12-31T06:11:00,mfh,41.41
2021-12-31T06:12:00,mfh,42.14
2021-12-31T06:13:00,mfh,41.33
2021-12-31T06:14:00,mfh,41.12
2021-12-31T06:15:00,mfh,41.04
2021-12-31T06:16:00,mfh,41.23
2021-12-31T06:17:00,mfh,41.23
2021-12-31T06:18:00,mfh,41.27
2021-12-31T06:19:00,mfh,41.51
2021-12-31T06:20:00,mfh,41.62
2021-12-31T06:21:00,mfh,41.68
2021-12-31T06:22:00,mfh,41.63
2021-12-31T06:23:00,mfh,41.16
2021-12-31T06:24:00,mfh,41.10
2021-12-31T06:25:00,mfh,41.13
2021-12-31T06:26:00,mfh,41.19
2021-12-31T06:27:00,mfh,41.90
2021-12-31T06:28:00,mfh,41.97
2021-12-31T06:29:00,mfh,42.07
2021-12-31T06:30:00,mfh,42.67
2021-12-31T06:31:00,mfh,42.65
2021-12-31T06:32:00,mfh,41.29
2021-12-31T06:33:00,mfh,43.06
2021-12-31T06:34:00,mfh,42.69
2021-12-31T06:35:00,mfh,42.26
2021-12-31T06:36:00,mfh,42.93
2021-12-31T06:37:00,mfh,43.06
2021-12-31T06:38:00,mfh,42.97
2021-12-31T06:39:00,mfh,42.97
2021-12-31T06:40:00,mfh,42.96
2021-12-31T06:41:00,mfh,42.26
2021-12-31T06:42:00,mfh,43.20
2021-12-31T06:43:00,mfh,42.23
2021-12-31T06:44:00,mfh,42.85
2021-12-31T06:45:00,mfh,42.99
2021-12-31T06:46:00,mfh,42.95
2021-12-31T06:47:00,mfh,52.25
2021-12-31T06:48:00,mfh,44.52
2021-12-31T06:49:00,mfh,44.42
2021-12-31T06:50:00,mfh,44.41
2021-12-31T06:51:00,mfh,45.84
2021-12-31T06:52:00,mfh,46.21
2021-12-31T06:53:00,mfh,45.99
2021-12-31T06:54:00,mfh,46.86
2021-12-31T06:55:00,mfh,46.43
2021-12-31T06:56:00,mfh,43.70
2021-12-31T06:57:00,mfh,43.32
2021-12-31T06:58:00,mfh,43.12
2021-12-31T06:59:00,mfh,43.70
2021-12-31T07:00:00,mfh,43.98
2021-12-31T07:01:00,mfh,43.95
2021-12-31T07:02:00,mfh,43.98
2021-12-31T07:03:00,mfh,43.76
2021-12-31T07:04:00,mfh,43.79
2021-12-31T07:05:00,mfh,43.04
2021-12-31T07:06:00,mfh,41.16
2021-12-31T07:07:00,mfh,41.20
2021-12-31T07:08:00,mfh,41.13
2021-12-31T07:09:00,mfh,41.74
2021-12-31T07:10:00,mfh,42.54
2021-12-31T07:11:00,mfh,41.72
2021-12-31T07:12:00,mfh,43.08
2021-12-31T07:13:00,mfh,41.09
2021-12-31T07:14:00,mfh,41.09
2021-12-31T07:15:00,mfh,41.37
2021-12-31T07:16:00,mfh,40.93
2021-12-31T07:17:00,mfh,41.70
2021-12-31T07:18:00,mfh,41.49
2021-12-31T07:19:00,mfh,41.47
2021-12-31T07:20:00,mfh,41.20
2021-12-31T07:21:00,mfh,41.31
2021-12-31T07:22:00,mfh,40.52
2021-12-31T07:23:00,mfh,40.45
2021-12-31T07:24:00,mfh,40.43
2021-12-31T07:25:00,mfh,41.15
2021-12-31T07:26:00,mfh,41.27
2021-12-31T07:27:00,mfh,41.37
2021-12-31T07:28:00,mfh,41.05
2021-12-31T07:29:00,mfh,40.94
2021-12-31T07:30:00,mfh,40.43
2021-12-31T07:31:00,mfh,40.52
2021-12-31T07:32:00,mfh,40.44
2021-12-31T07:33:00,mfh,41.10
2021-12-31T07:34:00,mfh,41.12
2021-12-31T07:35:00,mfh,41.03
2021-12-31T07:36:00,mfh,41.13
2021-12-31T07:37:00,mfh,41.23
2021-12-31T07:38:00,mfh,40.33
2021-12-31T07:39:00,mfh,40.36
2021-12-31T07:40:00,mfh,40.24
2021-12-31T07:41:00,mfh,40.20
2021-12-31T07:42:00,mfh,40.89
2021-12-31T07:43:00,mfh,40.85
2021-12-31T07:44:00,mfh,40.91
2021-12-31T07:45:00,mfh,41.22
2021-12-31T07:46:00,mfh,40.96
2021-12-31T07:47:00,mfh,40.15
2021-12-31T07:48:00,mfh,41.33
2021-12-31T07:49:00,mfh,41.28
2021-12-31T07:50:00,mfh,41.82
2021-12-31T07:51:00,mfh,42.12
2021-12-31T07:52:00,mfh,40.92
2021-12-31T07:53:00,mfh,41.24
2021-12-31T07:54:00,mfh,41.47
2021-12-31T07:55:00,mfh,40.78
2021-12-31T07:56:00,mfh,40.75
2021-12-31T07:57:00,mfh,41.05
2021-12-31T07:58:00,mfh,40.55
2021-12-31T07:59:00,mfh,41.35
2021-12-31T08:00:00,mfh,41.41
2021-12-31T08:01:00,mfh,41.36
2021-12-31T08:02:00,mfh,41.47
2021-12-31T08:03:00,mfh,40.76
2021-12-31T08:04:00,mfh,40.66
2021-12-31T08:05:00,mfh,40.68
2021-12-31T08:06:00,mfh,40.43
2021-12-31T08:07:00,mfh,41.01
2021-12-31T08:08:00,mfh,40.91
2021-12-31T08:09:00,mfh,41.00
2021-12-31T08:10:00,mfh,40.97
2021-12-31T08:11:00,mfh,40.90
2021-12-31T08:12:00,mfh,40.18
2021-12-31T08:13:00,mfh,40.33
2021-12-31T08:14:00,mfh,40.33
2021-12-31T08:15:00,mfh,40.94
2021-12-31T08:16:00,mfh,41.06
2021-12-31T08:17:00,mfh,41.04
2021-12-31T08:18:00,mfh,40.98
2021-12-31T08:19:00,mfh,41.09
2021-12-31T08:20:00,mfh,41.11
2021-12-31T08:21:00,mfh,40.40
2021-12-31T08:22:00,mfh,40.40
2021-12-31T08:23:00,mfh,40.43
2021-12-31T08:24:00,mfh,41.03
2021-12-31T08:25:00,mfh,41.51
2021-12-31T08:26:00,mfh,41.22
2021-12-31T08:27:00,mfh,41.04
2021-12-31T08:28:00,mfh,41.04
2021-12-31T08:29:00,mfh,40.17
2021-12-31T08:30:00,mfh,40.26
2021-12-31T08:31:00,mfh,40.36
2021-12-31T08:32:00,mfh,40.40
2021-12-31T08:33:00,mfh,41.12
2021-12-31T08:34:00,mfh,41.07
2021-12-31T08:35:00,mfh,41.13
2021-12-31T08:36:00,mfh,41.41
2021-12-31T08:37:00,mfh,42.33
2021-12-31T08:38:00,mfh,42.40
2021-12-31T08:39:00,mfh,42.70
2021-12-31T08:40:00,mfh,42.96
2021-12-31T08:41:00,mfh,43.38
2021-12-31T08:42:00,mfh,43.29
2021-12-31T08:43:00,mfh,44.29
2021-12-31T08:44:00,mfh,43.46
2021-12-31T08:45:00,mfh,42.55
2021-12-31T08:46:00,mfh,42.49
2021-12-31T08:47:00,mfh,42.25
2021-12-31T08:48:00,mfh,42.15
2021-12-31T08:49:00,mfh,42.98
2021-12-31T08:50:00,mfh,43.02
2021-12-31T08:51:00,mfh,42.87
2021-12-31T08:52:00,mfh,42.97
2021-12-31T08:53:00,mfh,42.88
2021-12-31T08:54:00,mfh,42.09
2021-12-31T08:55:00,mfh,43.04
2021-12-31T08:56:00,mfh,40.24
2021-12-31T08:57:00,mfh,40.22
2021-12-31T08:58:00,mfh,40.89
2021-12-31T08:59:00,mfh,40.89
2021-12-31T09:00:00,mfh,40.87
2021-12-31T09:01:00,mfh,40.81
2021-12-31T09:02:00,mfh,40.28
2021-12-31T09:03:00,mfh,40.87
2021-12-31T09:04:00,mfh,40.52
2021-12-31T09:05:00,mfh,40.54
2021-12-31T09:06:00,mfh,48.16
2021-12-31T09:07:00,mfh,49.23
2021-12-31T09:08:00,mfh,50.18
2021-12-31T09:09:00,mfh,50.23
2021-12-31T09:10:00,mfh,49.72
2021-12-31T09:11:00,mfh,50.03
2021-12-31T09:12:00,mfh,49.58
2021-12-31T09:13:00,mfh,49.52
2021-12-31T09:14:00,mfh,50.12
2021-12-31T09:15:00,mfh,50.06
2021-12-31T09:16:00,mfh,41.57
2021-12-31T09:17:00,mfh,41.57
2021-12-31T09:18:00,mfh,41.38
2021-12-31T09:19:00,mfh,41.27
2021-12-31T09:20:00,mfh,41.03
2021-12-31T09:21:00,mfh,41.21
2021-12-31T09:22:00,mfh,41.01
2021-12-31T09:23:00,mfh,41.61
2021-12-31T09:24:00,mfh,41.68
2021-12-31T09:25:00,mfh,41.86
2021-12-31T09:26:00,mfh,41.81
2021-12-31T09:27:00,mfh,40.97
2021-12-31T09:28:00,mfh,40.86
2021-12-31T09:29:00,mfh,40.84
2021-12-31T09:30:00,mfh,40.80
2021-12-31T09:31:00,mfh,41.75
2021-12-31T09:32:00,mfh,41.62
2021-12-31T09:33:00,mfh,41.59
2021-12-31T09:34:00,mfh,41.67
2021-12-31T09:35:00,mfh,41.92
2021-12-31T09:36:00,mfh,41.05
2021-12-31T09:37:00,mfh,52.31
2021-12-31T09:38:00,mfh,53.92
2021-12-31T09:39:00,mfh,54.20
2021-12-31T09:40:00,mfh,53.45
2021-12-31T09:41:00,mfh,53.35
2021-12-31T09:42:00,mfh,53.23
2021-12-31T09:43:00,mfh,53.06
2021-12-31T09:44:00,mfh,52.25
2021-12-31T09:45:00,mfh,52.23
2021-12-31T09:46:00,mfh,52.03
2021-12-31T09:47:00,mfh,52.92
2021-12-31T09:48:00,mfh,52.55
2021-12-31T09:49:00,mfh,52.76
2021-12-31T09:50:00,mfh,52.56
2021-12-31T09:51:00,mfh,52.59
2021-12-31T09:52:00,mfh,52.02
2021-12-31T09:53:00,mfh,52.07
2021-12-31T09:54:00,mfh,52.14
2021-12-31T09:55:00,mfh,52.11
2021-12-31T09:56:00,mfh,51.92
2021-12-31T09:57:00,mfh,52.59
2021-12-31T09:58:00,mfh,52.37
2021-12-31T09:59:00,mfh,52.29
2021-12-31T10:00:00,mfh,52.32
2021-12-31T10:01:00,mfh,51.87
2021-12-31T10:02:00,mfh,51.85
2021-12-31T10:03:00,mfh,51.50
2021-12-31T10:04:00,mfh,51.32
2021-12-31T10:05:00,mfh,52.32
2021-12-31T10:06:00,mfh,52.36
2021-12-31T10:07:00,mfh,52.39
2021-12-31T10:08:00,mfh,52.43
2021-12-31T10:09:00,mfh,51.69
2021-12-31T10:10:00,mfh,51.59
2021-12-31T10:11:00,mfh,51.87
2021-12-31T10:12:00,mfh,51.56
2021-12-31T10:13:00,mfh,52.60
2021-12-31T10:14:00,mfh,52.33
2021-12-31T10:15:00,mfh,53.00
2021-12-31T10:16:00,mfh,53.30
2021-12-31T10:17:00,mfh,53.22
2021-12-31T10:18:00,mfh,52.64
2021-12-31T10:19:00,mfh,53.50
2021-12-31T10:20:00,mfh,53.37
2021-12-31T10:21:00,mfh,54.41
2021-12-31T10:22:00,mfh,54.62
2021-12-31T10:23:00,mfh,53.38
2021-12-31T10:24:00,mfh,53.92
2021-12-31T10:25:00,mfh,52.71
2021-12-31T10:26:00,mfh,52.67
2021-12-31T10:27:00,mfh,52.66
2021-12-31T10:28:00,mfh,52.87
2021-12-31T10:29:00,mfh,52.75
2021-12-31T10:30:00,mfh,54.09
2021-12-31T10:31:00,mfh,52.98
2021-12-31T10:32:00,mfh,53.13
2021-12-31T10:33:00,mfh,53.37
2021-12-31T10:34:00,mfh,52.91
2021-12-31T10:35:00,mfh,60.14
2021-12-31T10:36:00,mfh,54.88
2021-12-31T10:37:00,mfh,54.58
2021-12-31T10:38:00,mfh,55.08
2021-12-31T10:39:00,mfh,55.20
2021-12-31T10:40:00,mfh,55.60
2021-12-31T10:41:00,mfh,55.31
2021-12-31T10:42:00,mfh,54.60
2021-12-31T10:43:00,mfh,54.56
2021-12-31T10:44:00,mfh,54.51
2021-12-31T10:45:00,mfh,54.64
2021-12-31T10:46:00,mfh,55.24
2021-12-31T10:47:00,mfh,54.90
2021-12-31T10:48:00,mfh,54.87
2021-12-31T10:49:00,mfh,54.84
2021-12-31T10:50:00,mfh,53.84
2021-12-31T10:51:00,mfh,54.13
2021-12-31T10:52:00,mfh,53.87
2021-12-31T10:53:00,mfh,51.90
2021-12-31T10:54:00,mfh,52.69
2021-12-31T10:55:00,mfh,52.66
2021-12-31T10:56:00,mfh,52.62
2021-12-31T10:57:00,mfh,53.12
2021-12-31T10:58:00,mfh,74.32
2021-12-31T10:59:00,mfh,75.14
2021-12-31T11:00:00,mfh,76.51
2021-12-31T11:01:00,mfh,76.36
2021-12-31T11:02:00,mfh,76.69
2021-12-31T11:03:00,mfh,76.79
2021-12-31T11:04:00,mfh,76.62
2021-12-31T11:05:00,mfh,76.57
2021-12-31T11:06:00,mfh,76.71
2021-12-31T11:07:00,mfh,75.64
2021-12-31T11:08:00,mfh,75.64
2021-12-31T11:09:00,mfh,75.81
2021-12-31T11:10:00,mfh,76.95
2021-12-31T11:11:00,mfh,77.17
2021-12-31T11:12:00,mfh,68.80
2021-12-31T11:13:00,mfh,69.06
2021-12-31T11:14:00,mfh,68.69
2021-12-31T11:15:00,mfh,62.30
2021-12-31T11:16:00,mfh,53.62
2021-12-31T11:17:00,mfh,53.49
2021-12-31T11:18:00,mfh,53.46
2021-12-31T11:19:00,mfh,53.39
2021-12-31T11:20:00,mfh,54.27
2021-12-31T11:21:00,mfh,54.07
2021-12-31T11:22:00,mfh,53.87
2021-12-31T11:23:00,mfh,53.86
2021-12-31T11:24:00,mfh,53.06
2021-12-31T11:25:00,mfh,53.49
2021-12-31T11:26:00,mfh,53.23
2021-12-31T11:27:00,mfh,54.02
2021-12-31T11:28:00,mfh,54.20
2021-12-31T11:29:00,mfh,54.40
2021-12-31T11:30:00,mfh,54.11
2021-12-31T11:31:00,mfh,54.43
2021-12-31T11:32:00,mfh,54.00
2021-12-31T11:33:00,mfh,53.73
2021-12-31T11:34:00,mfh,53.30
2021-12-31T11:35:00,mfh,53.74
2021-12-31T11:36:00,mfh,53.33
2021-12-31T11:37:00,mfh,54.46
2021-12-31T11:38:00,mfh,54.23
2021-12-31T11:39:00,mfh,54.11
2021-12-31T11:40:00,mfh,54.42
2021-12-31T11:41:00,mfh,53.45
2021-12-31T11:42:00,mfh,53.89
2021-12-31T11:43:00,mfh,54.06
2021-12-31T11:44:00,mfh,54.02
2021-12-31T11:45:00,mfh,55.01
2021-12-31T11:46:00,mfh,54.41
2021-12-31T11:47:00,mfh,54.83
2021-12-31T11:48:00,mfh,54.39
2021-12-31T11:49:00,mfh,53.97
2021-12-31T11:50:00,mfh,53.78
2021-12-31T11:51:00,mfh,53.83
2021-12-31T11:52:00,mfh,53.71
2021-12-31T11:53:00,mfh,54.31
2021-12-31T11:54:00,mfh,54.30
2021-12-31T11:55:00,mfh,54.11
2021-12-31T11:56:00,mfh,54.44
2021-12-31T11:57:00,mfh,54.45
2021-12-31T11:58:00,mfh,53.87
2021-12-31T11:59:00,mfh,53.44
2021-12-31T12:00:00,mfh,54.65
2021-12-31T12:01:00,mfh,52.49
2021-12-31T12:02:00,mfh,53.12
2021-12-31T12:03:00,mfh,53.29
2021-12-31T12:04:00,mfh,53.17
2021-12-31T12:05:00,mfh,54.27
2021-12-31T12:06:00,mfh,52.59
2021-12-31T12:07:00,mfh,53.33
2021-12-31T12:08:00,mfh,52.51
2021-12-31T12:09:00,mfh,55.56
2021-12-31T12:10:00,mfh,55.16
2021-12-31T12:11:00,mfh,55.06
2021-12-31T12:12:00,mfh,54.98
2021-12-31T12:13:00,mfh,54.94
2021-12-31T12:14:00,mfh,54.47
2021-12-31T12:15:00,mfh,54.61
2021-12-31T12:16:00,mfh,54.61
2021-12-31T12:17:00,mfh,54.64
2021-12-31T12:18:00,mfh,55.34
2021-12-31T12:19:00,mfh,55.11
2021-12-31T12:20:00,mfh,54.12
2021-12-31T12:21:00,mfh,65.89
2021-12-31T12:22:00,mfh,67.46
2021-12-31T12:23:00,mfh,68.15
2021-12-31T12:24:00,mfh,68.49
2021-12-31T12:25:00,mfh,68.38
2021-12-31T12:26:00,mfh,69.03
2021-12-31T12:27:00,mfh,69.24
2021-12-31T12:28:00,mfh,69.64
2021-12-31T12:29:00,mfh,69.17
2021-12-31T12:30:00,mfh,69.25
2021-12-31T12:31:00,mfh,67.90
2021-12-31T12:32:00,mfh,66.53
2021-12-31T12:33:00,mfh,66.89
2021-12-31T12:34:00,mfh,60.15
2021-12-31T12:35:00,mfh,61.82
2021-12-31T12:36:00,mfh,53.70
2021-12-31T12:37:00,mfh,47.93
2021-12-31T12:38:00,mfh,47.64
2021-12-31T12:39:00,mfh,46.92
2021-12-31T12:40:00,mfh,47.29
2021-12-31T12:41:00,mfh,47.10
2021-12-31T12:42:00,mfh,47.08
2021-12-31T12:43:00,mfh,47.97
2021-12-31T12:44:00,mfh,47.97
2021-12-31T12:45:00,mfh,47.63
2021-12-31T12:46:00,mfh,48.58
2021-12-31T12:47:00,mfh,48.18
2021-12-31T12:48:00,mfh,47.48
2021-12-31T12:49:00,mfh,55.32
2021-12-31T12:50:00,mfh,56.90
2021-12-31T12:51:00,mfh,57.86
2021-12-31T12:52:00,mfh,58.64
2021-12-31T12:53:00,mfh,60.92
2021-12-31T12:54:00,mfh,60.84
2021-12-31T12:55:00,mfh,61.31
2021-12-31T12:56:00,mfh,59.98
2021-12-31T12:57:00,mfh,59.61
2021-12-31T12:58:00,mfh,59.07
2021-12-31T12:59:00,mfh,59.06
2021-12-31T13:00:00,mfh,60.09
2021-12-31T13:01:00,mfh,51.25
2021-12-31T13:02:00,mfh,51.25
2021-12-31T13:03:00,mfh,51.46
2021-12-31T13:04:00,mfh,51.23
2021-12-31T13:05:00,mfh,50.65
2021-12-31T13:06:00,mfh,51.07
2021-12-31T13:07:00,mfh,51.07
2021-12-31T13:08:00,mfh,50.65
2021-12-31T13:09:00,mfh,51.43
2021-12-31T13:10:00,mfh,71.70
2021-12-31T13:11:00,mfh,77.58
2021-12-31T13:12:00,mfh,79.63
2021-12-31T13:13:00,mfh,78.41
2021-12-31T13:14:00,mfh,78.66
2021-12-31T13:15:00,mfh,78.66
2021-12-31T13:16:00,mfh,79.25
2021-12-31T13:17:00,mfh,79.13
2021-12-31T13:18:00,mfh,79.10